PRAETORIAN SDA_620

Last updated on Sat Jun 27 2026 00:03:47 GMT+0000 (Coordinated Universal Time)

1 65583U 25203U 26177.44290497 .00000149 00000+0 12454-3 0 9993 2 65583 81.3030 2.2421 0008060 156.5713 203.5812 13.83619018 39976
UTC large
Height (km)
Speed (km/s)
/
Latitude / Longitude
Inclination (degrees)
Orbital Period (minutes)
Azimuth
Elevation
Range (km)
Doppler Factor

Next 0 passes for location: London (51.5072 / 0.1276)

No passes found over London.
PRAETORIAN SDA_620